Year,Month,Day,Hour,Minute,Value (Times are PST for temperature in C)
2016,11,19,09,01,8.60
2016,11,19,09,02,8.60
2016,11,19,09,03,8.60
2016,11,19,09,04,8.70
2016,11,19,09,05,8.70
2016,11,19,09,06,8.70
2016,11,19,09,07,8.80
2016,11,19,09,08,8.80
2016,11,19,09,09,8.80
2016,11,19,09,10,8.80
2016,11,19,09,11,8.90
2016,11,19,09,12,8.90
2016,11,19,09,13,8.90
2016,11,19,09,14,9.00
2016,11,19,09,15,9.00
2016,11,19,09,16,9.10
2016,11,19,09,17,9.10
2016,11,19,09,18,9.10
2016,11,19,09,19,9.10
2016,11,19,09,20,9.10
2016,11,19,09,21,9.10
2016,11,19,09,22,9.20
2016,11,19,09,23,9.20
2016,11,19,09,24,9.20
2016,11,19,09,25,9.20
2016,11,19,09,26,9.20
2016,11,19,09,27,9.20
2016,11,19,09,28,9.30
2016,11,19,09,29,9.30
2016,11,19,09,30,9.30
2016,11,19,09,31,9.30
2016,11,19,09,32,9.30
2016,11,19,09,33,9.40
2016,11,19,09,34,9.40
2016,11,19,09,35,9.40
2016,11,19,09,36,9.50
2016,11,19,09,37,9.50
2016,11,19,09,38,9.60
2016,11,19,09,39,9.60
2016,11,19,09,40,9.60
2016,11,19,09,41,9.70
2016,11,19,09,42,9.70
2016,11,19,09,43,9.70
2016,11,19,09,44,9.70
2016,11,19,09,45,9.70
2016,11,19,09,46,9.70
2016,11,19,09,47,9.70
2016,11,19,09,48,9.70
2016,11,19,09,49,9.70
2016,11,19,09,50,9.70
2016,11,19,09,51,9.70
2016,11,19,09,52,9.70
2016,11,19,09,53,9.70
2016,11,19,09,54,9.70
2016,11,19,09,55,9.70
2016,11,19,09,56,9.70
2016,11,19,09,57,9.70
2016,11,19,09,58,9.70
2016,11,19,09,59,9.70
2016,11,19,10,00,9.70
2016,11,19,10,01,9.70
2016,11,19,10,02,9.70
2016,11,19,10,03,9.70
2016,11,19,10,04,9.70
2016,11,19,10,05,9.70
2016,11,19,10,06,9.70
2016,11,19,10,07,9.70
2016,11,19,10,08,9.80
2016,11,19,10,09,9.70
2016,11,19,10,10,9.80
2016,11,19,10,11,9.70
2016,11,19,10,12,9.80
2016,11,19,10,13,9.80
2016,11,19,10,14,9.80
2016,11,19,10,15,9.80
2016,11,19,10,16,9.90
2016,11,19,10,17,9.90
2016,11,19,10,18,9.90
2016,11,19,10,19,10.00
2016,11,19,10,20,10.00
2016,11,19,10,21,10.10
2016,11,19,10,22,10.10
2016,11,19,10,23,10.20
2016,11,19,10,24,10.20
2016,11,19,10,25,10.20
2016,11,19,10,26,10.20
2016,11,19,10,27,10.20
2016,11,19,10,28,10.30
2016,11,19,10,29,10.30
2016,11,19,10,30,10.30
2016,11,19,10,31,10.30
2016,11,19,10,32,10.30
2016,11,19,10,33,10.30
2016,11,19,10,34,10.40
2016,11,19,10,35,10.40
2016,11,19,10,36,10.40
2016,11,19,10,37,10.40
2016,11,19,10,38,10.50
2016,11,19,10,39,10.50
2016,11,19,10,40,10.50
2016,11,19,10,41,10.60
2016,11,19,10,42,10.60
2016,11,19,10,43,10.60
2016,11,19,10,44,10.60
2016,11,19,10,45,10.60
2016,11,19,10,46,10.60
2016,11,19,10,47,10.60
2016,11,19,10,48,10.60
2016,11,19,10,49,10.60
2016,11,19,10,50,10.60
2016,11,19,10,51,10.60
2016,11,19,10,52,10.60
2016,11,19,10,53,10.60
2016,11,19,10,54,10.60
2016,11,19,10,55,10.60
2016,11,19,10,56,10.60
2016,11,19,10,57,10.60
2016,11,19,10,58,10.50
2016,11,19,10,59,10.50
2016,11,19,11,00,10.50
2016,11,19,11,01,10.50
2016,11,19,11,02,10.50
2016,11,19,11,03,10.50
2016,11,19,11,04,10.40
2016,11,19,11,05,10.40
2016,11,19,11,06,10.40
2016,11,19,11,07,10.50
2016,11,19,11,08,10.50
2016,11,19,11,09,10.40
2016,11,19,11,10,10.40
2016,11,19,11,11,10.40
2016,11,19,11,12,10.40
2016,11,19,11,13,10.40
2016,11,19,11,14,10.30
2016,11,19,11,15,10.30
2016,11,19,11,16,10.30
2016,11,19,11,17,10.30
2016,11,19,11,18,10.30
2016,11,19,11,19,10.30
2016,11,19,11,20,10.30
2016,11,19,11,21,10.30
2016,11,19,11,22,10.30
2016,11,19,11,23,10.20
2016,11,19,11,24,10.20
2016,11,19,11,25,10.20
2016,11,19,11,26,10.20
2016,11,19,11,27,10.20
2016,11,19,11,28,10.10
2016,11,19,11,29,10.10
2016,11,19,11,30,10.10
2016,11,19,11,31,10.10
2016,11,19,11,32,10.10
2016,11,19,11,33,10.10
2016,11,19,11,34,10.10
2016,11,19,11,35,10.10
2016,11,19,11,36,10.10
2016,11,19,11,37,10.10
2016,11,19,11,38,10.10
2016,11,19,11,39,10.10
2016,11,19,11,40,10.10
2016,11,19,11,41,10.10
2016,11,19,11,42,10.10
2016,11,19,11,43,10.10
2016,11,19,11,44,10.00
2016,11,19,11,45,10.00
2016,11,19,11,46,9.90
2016,11,19,11,47,9.90
2016,11,19,11,48,9.90
2016,11,19,11,49,9.90
2016,11,19,11,50,9.90
2016,11,19,11,51,9.90
2016,11,19,11,52,9.90
2016,11,19,11,53,9.90
2016,11,19,11,54,9.90
2016,11,19,11,55,9.90
2016,11,19,11,56,9.90
2016,11,19,11,57,9.90
2016,11,19,11,58,9.90
2016,11,19,11,59,9.90
2016,11,19,12,00,9.80
2016,11,19,12,01,9.80
2016,11,19,12,02,9.80
2016,11,19,12,03,9.80
2016,11,19,12,04,9.80
2016,11,19,12,05,9.80
2016,11,19,12,06,9.80
2016,11,19,12,07,9.80
2016,11,19,12,08,9.80
2016,11,19,12,09,9.80
2016,11,19,12,10,9.80
2016,11,19,12,11,9.80
2016,11,19,12,12,9.80
2016,11,19,12,13,9.80
2016,11,19,12,14,9.70
2016,11,19,12,15,9.70
2016,11,19,12,16,9.70
2016,11,19,12,17,9.70
2016,11,19,12,18,9.70
2016,11,19,12,19,9.70
2016,11,19,12,20,9.70
2016,11,19,12,21,9.70
2016,11,19,12,22,9.70
2016,11,19,12,23,9.70
2016,11,19,12,24,9.70
2016,11,19,12,25,9.70
2016,11,19,12,26,9.70
2016,11,19,12,27,9.80
2016,11,19,12,28,9.80
2016,11,19,12,29,9.80
2016,11,19,12,30,9.80
2016,11,19,12,31,9.80
2016,11,19,12,32,9.80
2016,11,19,12,33,9.80
2016,11,19,12,34,9.90
2016,11,19,12,35,9.90
2016,11,19,12,36,9.90
2016,11,19,12,37,9.90
2016,11,19,12,38,9.90
2016,11,19,12,39,9.90
2016,11,19,12,40,9.90
2016,11,19,12,41,9.90
2016,11,19,12,42,9.90
2016,11,19,12,43,9.90
2016,11,19,12,44,9.90
2016,11,19,12,45,9.90
2016,11,19,12,46,9.90
2016,11,19,12,47,9.90
2016,11,19,12,48,9.90
2016,11,19,12,49,9.90
2016,11,19,12,50,9.90
2016,11,19,12,51,9.90
2016,11,19,12,52,9.80
2016,11,19,12,53,9.80
2016,11,19,12,54,9.80
2016,11,19,12,55,9.80
2016,11,19,12,56,9.80
2016,11,19,12,57,9.80
2016,11,19,12,58,9.80
2016,11,19,12,59,9.80
2016,11,19,13,00,9.80
2016,11,19,13,01,9.80
2016,11,19,13,02,9.90
2016,11,19,13,03,9.90
2016,11,19,13,04,9.90
2016,11,19,13,05,9.90
2016,11,19,13,06,10.00
2016,11,19,13,07,10.00
2016,11,19,13,08,10.00
2016,11,19,13,09,10.10
2016,11,19,13,10,10.10
2016,11,19,13,11,10.10
2016,11,19,13,12,10.20
2016,11,19,13,13,10.20
2016,11,19,13,14,10.20
2016,11,19,13,15,10.20
2016,11,19,13,16,10.30
2016,11,19,13,17,10.30
2016,11,19,13,18,10.30
2016,11,19,13,19,10.30
2016,11,19,13,20,10.40
2016,11,19,13,21,10.40
2016,11,19,13,22,10.40
2016,11,19,13,23,10.40
2016,11,19,13,24,10.40
2016,11,19,13,25,10.40
2016,11,19,13,26,10.40
2016,11,19,13,27,10.40
2016,11,19,13,28,10.30
2016,11,19,13,29,10.30
2016,11,19,13,30,10.30
2016,11,19,13,31,10.20
2016,11,19,13,32,10.20
2016,11,19,13,33,10.20
2016,11,19,13,34,10.20
2016,11,19,13,35,10.20
2016,11,19,13,36,10.20
2016,11,19,13,37,10.20
2016,11,19,13,38,10.20
2016,11,19,13,39,10.20
2016,11,19,13,40,10.20
2016,11,19,13,41,10.20
2016,11,19,13,42,10.20
2016,11,19,13,43,10.20
2016,11,19,13,44,10.20
2016,11,19,13,45,10.20
2016,11,19,13,46,10.20
2016,11,19,13,47,10.20
2016,11,19,13,48,10.20
2016,11,19,13,49,10.20
2016,11,19,13,50,10.20
2016,11,19,13,51,10.20
2016,11,19,13,52,10.30
2016,11,19,13,53,10.30
2016,11,19,13,54,10.30
2016,11,19,13,55,10.30
2016,11,19,13,56,10.30
2016,11,19,13,57,10.30
2016,11,19,13,58,10.30
2016,11,19,13,59,10.30
2016,11,19,14,00,10.40
2016,11,19,14,01,10.40
2016,11,19,14,02,10.40
2016,11,19,14,03,10.40
2016,11,19,14,04,10.40
2016,11,19,14,05,10.40
2016,11,19,14,06,10.40
2016,11,19,14,07,10.40
2016,11,19,14,08,10.40
2016,11,19,14,09,10.40
2016,11,19,14,10,10.40
2016,11,19,14,11,10.40
2016,11,19,14,12,10.40
2016,11,19,14,13,10.40
2016,11,19,14,14,10.40
2016,11,19,14,15,10.40
